Flag for Germany Weather past 2 weeks in Hamburg, Hamburg, Germany

Now
43 °F

Partly sunny.


Feels Like: 34 °F
Forecast: 27 / 32 °F
Wind: 18 mph from West

Location: Hamburg-Fuhlsbuettel

Current Time: Dec 25, 2014 at 11:52:23 AM

Latest Report: Dec 25, 2014 at 11:20 AM


Visibility: N/A

Pressure: 29.89 "Hg

Humidity: 71%

Dew point: 34 °F

Location of HamburgLocation

Historic Weather in Hamburg — Graph

°F

Hamburg temperature yesterday

Maximum temperature yesterday: 50 °F (at 12:20 AM)
Minimum temperature yesterday: 39 °F (at 11:50 PM)
Average temperature yesterday: 46 °F

Past Weeks' High & Low Weather Summary

 TemperatureHumidityPressure
High54 °F (Dec 18, 7:20 PM)100% (Dec 12, 7:20 AM)30.18 "Hg (Dec 12, 7:20 AM)
Low34 °F (Dec 13, 7:20 PM)71% (Dec 20, 4:50 PM)29.18 "Hg (Dec 12, 12:50 PM)
Average43 °F90%29.73 "Hg
* Reported Dec 10 10:20 AM — Dec 25 10:50 AM, Hamburg, Weather by CustomWeather, © 2014

Note: Actual official high and low records may vary slightly from our data, if they occured in-between our weather recording intervals... More about our weather records

Advertising

Hamburg weather history for previous 24 hours

 ConditionsComfort  
Time TempWeatherWind HumidityBarometerVisibility
10:50 AM
Dec 25
41 °FScattered clouds.20 mph87%29.89 "HgN/A
10:20 AM43 °FBroken clouds.13 mph81%29.89 "HgN/A
9:50 AM43 °FSprinkles. Broken clouds.17 mph81%29.86 "HgN/A
9:20 AM43 °FSprinkles. Broken clouds.15 mph87%29.86 "HgN/A
8:50 AM43 °FBroken clouds.18 mph87%29.83 "HgN/A
8:20 AM43 °FSprinkles. Partly cloudy.16 mph87%29.83 "HgN/A
7:50 AM41 °FSprinkles. Passing clouds.17 mph93%29.83 "HgN/A
7:20 AM41 °FSprinkles. Passing clouds.20 mph93%29.83 "HgN/A
6:50 AM41 °FSprinkles. Passing clouds.20 mph93%29.83 "HgN/A
6:20 AM41 °FSprinkles. Passing clouds.18 mph93%29.83 "HgN/A
5:50 AM41 °FSprinkles. Passing clouds.20 mph87%29.83 "HgN/A
5:20 AM41 °FSprinkles. Passing clouds.20 mph87%29.83 "HgN/A
4:50 AM41 °FPassing clouds.17 mph87%29.86 "HgN/A
4:20 AM41 °FPassing clouds.18 mph87%29.86 "HgN/A
3:50 AM41 °FScattered showers. Passing clouds.16 mph87%29.86 "HgN/A
3:20 AM41 °FLight rain. Passing clouds.14 mph87%29.89 "HgN/A
2:50 AM41 °FPassing clouds.17 mph87%29.89 "HgN/A
2:20 AM41 °FPassing clouds.17 mph87%29.89 "HgN/A
1:50 AM41 °FPassing clouds.15 mph87%29.89 "HgN/A
1:20 AM41 °FPassing clouds.15 mph87%29.89 "HgN/A
12:50 AM39 °FPassing clouds.13 mph87%29.89 "HgN/A
12:20 AM39 °FPassing clouds.14 mph87%29.89 "HgN/A
11:50 PM
Dec 24
39 °FPassing clouds.15 mph87%29.89 "HgN/A
11:20 PM41 °FPassing clouds.13 mph87%29.86 "HgN/A
10:50 PM41 °FPassing clouds.13 mph87%29.86 "HgN/A
10:20 PM41 °FPassing clouds.13 mph87%29.86 "HgN/A
9:50 PM41 °FPassing clouds.13 mph87%29.86 "HgN/A
9:20 PM41 °FPassing clouds.12 mph87%29.86 "HgN/A
8:50 PM41 °FLight rain. Passing clouds.14 mph87%29.86 "HgN/A
8:20 PM41 °FPassing clouds.13 mph87%29.83 "HgN/A
7:50 PM43 °FLight rain. Passing clouds.15 mph76%29.83 "HgN/A
7:20 PM43 °FPassing clouds.10 mph81%29.83 "HgN/A
6:50 PM43 °FPassing clouds.10 mph81%29.83 "HgN/A
6:20 PM43 °FPassing clouds.12 mph81%29.83 "HgN/A
5:50 PM43 °FPassing clouds.12 mph87%29.80 "HgN/A
5:20 PM45 °FPassing clouds.12 mph81%29.80 "HgN/A
4:50 PM45 °FPassing clouds.10 mph81%29.80 "HgN/A
4:20 PM45 °FSprinkles. Passing clouds.13 mph81%29.80 "HgN/A
3:20 PM45 °FScattered clouds.14 mph87%29.77 "HgN/A
2:50 PM43 °FSprinkles. Scattered clouds.17 mph93%29.77 "Hg5 mi
2:20 PM45 °FSprinkles. Partly sunny.14 mph87%29.74 "HgN/A
1:50 PM46 °FScattered showers. Partly sunny.15 mph82%29.74 "HgN/A
1:20 PM46 °FBroken clouds.17 mph82%29.74 "HgN/A
12:50 PM48 °FPartly sunny.18 mph82%29.74 "HgN/A
12:20 PM48 °FBroken clouds.17 mph87%29.71 "HgN/A
11:50 AM48 °FDrizzle. Partly sunny.18 mph94%29.71 "Hg4 mi
11:20 AM48 °FDrizzle. Partly sunny.17 mph94%29.71 "Hg2 mi
Weather by CustomWeather, © 2014

See weather overviewHow to use our weather pages